Wind_Speed
26 24 22 20 19 19 17 16 13 10 9 9 7 5 4 6 7 7 8 8 9 10 11 12 12 13 13 12 11 10 10 10 9 9 8 8 8 7 6 5 4 3 1 1
26 25 23 23 21 21 20 18 16 13 13 12 11 9 7 7 7 7 7 8 8 8 9 10 11 11 11 10 10 10 8 9 8 7 7 7 7 7 7 6 5 4 2 1
27 25 26 25 23 23 22 20 18 16 16 15 15 13 10 8 7 7 7 8 7 7 6 7 9 10 9 9 8 8 7 7 7 6 6 6 6 6 6 5 4 4 3 3
27 27 28 27 25 25 23 22 21 20 19 19 18 16 12 11 9 8 7 7 7 7 7 7 8 9 8 8 7 6 6 5 5 5 5 5 4 4 4 4 4 4 3 3
26 27 28 27 26 26 25 24 24 23 23 22 20 19 15 14 13 11 9 8 8 8 8 8 8 8 8 7 7 6 5 5 4 5 4 3 3 3 3 3 3 3 3 3
26 27 28 27 27 27 27 25 25 26 25 24 21 21 18 16 16 14 12 10 9 9 9 9 9 9 8 7 7 6 6 6 5 4 5 4 4 4 4 4 3 3 3 4
26 27 28 28 28 28 28 27 26 27 26 25 23 24 20 18 18 17 16 13 12 12 12 10 10 11 10 9 9 9 8 7 6 6 5 5 6 5 5 5 5 5 5 5
26 26 27 28 28 28 28 28 28 28 28 26 25 25 22 20 20 19 18 16 14 14 13 12 12 13 12 11 12 11 10 9 8 7 7 7 7 6 6 6 7 7 7 7
27 26 26 28 28 28 28 29 29 29 28 29 29 28 25 22 21 20 18 17 16 15 13 13 13 14 14 14 13 13 12 12 11 10 9 9 8 9 9 8 8 8 8 8
27 27 27 28 29 29 29 29 28 29 30 30 30 28 25 23 21 20 19 18 16 16 15 15 15 16 16 15 15 14 14 14 14 13 13 11 11 11 11 11 10 10 10 10
28 27 27 28 30 30 30 30 30 31 31 32 31 29 26 25 22 21 20 18 17 17 16 17 18 18 17 17 17 16 17 16 16 16 15 14 14 14 14 14 14 13 12 13
29 29 28 29 29 31 32 32 31 31 31 32 33 31 27 26 25 22 21 20 18 18 18 18 19 20 19 19 18 18 19 20 19 18 18 17 18 19 18 17 16 16 15 15
30 30 30 30 31 32 33 33 33 33 33 33 33 31 28 27 26 24 22 21 21 21 21 21 22 22 22 22 21 21 21 21 20 21 20 19 20 21 21 21 20 19 18 18
32 33 33 32 32 32 34 34 34 34 35 34 33 31 29 28 27 26 25 24 23 22 23 23 24 23 23 23 23 23 24 24 23 22 21 21 21 22 24 24 23 23 21 21
34 35 34 33 33 34 35 35 35 35 35 35 34 33 31 29 28 27 26 26 26 25 25 25 25 26 26 26 25 25 25 24 23 23 23 23 23 23 24 25 25 24 23 22
36 36 35 35 34 35 36 36 36 35 34 35 35 34 32 32 30 28 27 27 27 27 27 27 27 27 28 28 27 26 25 26 26 26 26 26 27 26 26 26 26 26 25 24
37 38 38 37 37 37 38 37 36 36 35 35 35 34 33 33 31 30 29 28 29 29 28 28 28 28 29 30 30 29 28 28 28 29 29 28 29 28 28 27 27 27 27 26
37 37 39 38 37 39 38 36 36 36 36 35 35 35 35 35 34 32 32 31 30 31 30 31 31 31 31 32 31 31 31 31 30 30 30 30 30 30 30 29 29 30 30 30
37 37 37 37 37 38 37 36 34 34 35 34 34 34 34 34 35 34 34 33 33 33 34 34 34 34 34 34 33 33 33 32 31 31 30 30 31 31 32 32 32 32 32 32
36 36 37 36 37 37 35 34 33 34 35 34 34 34 35 35 35 34 35 35 35 35 35 37 37 37 36 36 34 34 34 33 33 33 33 32 32 32 32 34 34 34 33 33
35 35 36 36 37 37 36 34 33 34 34 34 34 35 35 36 36 36 36 36 36 36 37 38 39 39 38 37 37 37 36 35 35 35 34 34 34 34 35 35 35 35 34 35
34 35 36 36 37 37 36 35 34 35 35 34 34 35 35 36 36 37 38 38 38 39 39 39 39 40 40 40 40 40 38 36 35 36 37 37 37 38 38 37 36 37 36 36
34 34 35 35 35 35 36 36 36 36 36 37 37 36 36 36 37 37 38 38 39 39 40 40 40 40 41 41 40 40 38 38 38 38 38 39 38 39 39 38 37 36 36 37
33 33 34 34 34 34 35 36 36 37 37 37 37 37 37 36 37 37 38 38 38 38 40 41 42 41 41 41 41 41 40 40 40 40 39 38 38 38 38 38 37 37 37 38
32 32 33 33 33 34 34 34 35 35 35 36 37 38 38 37 37 37 37 37 37 38 40 41 41 41 41 42 42 42 42 42 41 41 41 39 39 37 37 36 37 38 38 39
30 31 32 32 32 33 33 33 33 33 34 35 36 36 37 37 37 37 37 38 38 38 39 40 40 41 40 40 41 41 42 42 41 40 40 39 38 37 37 38 38 38 38 37
Wind_Direction
232 232 231 231 236 236 238 244 248 253 263 272 286 304 324 334 343 346 355 360 8 10 15 18 18 22 25 28 33 43 48 52 55 58 58 57 62 67 73 73 80 81 126 205
232 231 229 228 233 235 237 242 246 250 258 266 271 279 289 310 323 334 342 348 356 1 9 10 11 11 15 19 24 32 37 46 49 52 53 53 56 61 64 64 55 45 36 350
232 230 227 227 231 234 237 242 243 246 252 261 265 266 273 294 297 311 324 328 331 342 349 353 358 1 3 7 13 22 27 35 38 43 46 51 51 52 56 56 46 35 31 19
230 228 228 228 231 235 238 242 244 246 252 259 263 264 265 275 282 290 305 313 315 319 319 324 338 345 349 351 357 5 11 20 24 27 30 39 42 41 39 40 36 26 17 357
229 227 228 229 232 236 239 242 245 248 252 256 260 265 264 267 275 281 290 293 295 303 303 307 317 325 332 336 340 347 348 356 0 7 12 16 18 15 10 13 11 1 351 340
229 228 229 230 231 236 240 242 245 248 252 255 260 267 267 268 274 277 280 279 284 287 288 291 298 308 313 313 318 321 324 329 336 343 350 349 342 338 334 334 336 332 336 333
230 230 231 232 233 236 241 243 244 247 251 257 262 266 269 270 273 274 273 266 271 273 274 276 285 294 299 297 298 299 303 309 318 318 320 329 332 324 317 318 316 314 313 316
232 232 232 233 235 238 241 244 245 249 253 257 260 266 270 269 271 271 272 270 271 268 270 271 277 285 290 290 289 290 288 291 293 297 299 305 315 309 297 301 304 303 302 303
233 233 233 235 236 238 240 242 246 249 253 258 261 267 269 272 273 269 269 271 269 265 267 270 271 277 282 281 281 282 282 284 286 284 282 284 293 296 292 291 291 294 294 298
237 235 232 235 238 239 241 242 244 249 253 258 263 267 269 272 270 269 270 269 265 261 264 265 265 268 276 279 277 272 274 275 276 277 273 272 281 286 287 286 284 284 285 289
241 242 238 237 237 240 241 243 245 249 254 258 263 266 270 273 272 272 272 272 269 264 265 264 263 265 268 270 271 272 272 272 271 273 274 271 272 276 281 282 285 285 280 282
243 243 242 242 242 241 242 244 247 251 255 259 262 266 270 274 273 273 272 272 273 271 266 266 265 265 270 272 274 273 276 276 272 271 271 270 272 273 274 278 280 282 280 279
243 244 244 243 243 243 243 245 248 251 255 258 261 265 268 270 272 273 273 271 269 271 269 268 269 268 269 273 273 272 278 276 270 270 271 271 271 271 270 273 274 276 277 277
247 246 246 246 245 245 244 245 247 251 254 257 260 264 265 267 270 272 272 270 269 269 268 268 270 270 270 272 272 274 273 274 272 272 270 271 270 269 270 272 274 276 275 272
248 250 249 248 248 248 247 247 248 251 253 256 259 261 264 267 268 270 271 270 268 267 266 266 267 268 269 271 273 274 275 275 275 272 273 271 270 270 273 275 275 275 272 271
247 249 250 251 251 251 250 249 250 252 255 256 258 260 262 264 267 268 270 270 269 268 267 269 269 271 270 272 274 273 275 275 275 274 275 275 273 272 275 276 274 272 271 272
246 248 250 251 252 253 253 251 252 253 255 256 257 259 261 262 264 266 266 266 268 269 269 270 271 272 274 275 275 273 272 273 274 277 276 278 274 275 278 277 275 273 270 271
249 249 251 253 253 254 255 255 255 255 255 257 259 260 261 262 262 264 265 265 266 268 269 270 271 273 275 277 275 274 275 275 276 277 276 277 275 274 274 277 273 273 273 272
248 250 252 254 255 256 255 256 257 257 257 258 259 261 262 263 262 263 265 265 266 267 268 269 271 272 275 277 278 277 278 276 277 279 280 279 277 275 276 275 272 272 272 272
247 249 252 254 255 256 257 257 258 258 259 258 260 261 262 262 261 262 264 267 267 266 265 267 269 271 273 274 276 278 278 278 278 278 279 279 278 278 277 274 272 272 273 273
247 248 250 253 255 257 258 259 258 258 260 260 261 262 262 263 263 263 263 265 267 267 265 266 268 269 271 271 273 275 275 276 277 276 277 278 278 278 277 274 273 272 272 272
249 249 250 252 254 256 257 258 258 259 260 261 263 263 263 263 263 264 264 265 267 267 268 269 269 269 270 271 272 274 273 273 275 276 276 277 276 275 276 276 273 271 271 271
249 250 252 251 252 255 256 258 258 259 260 261 263 263 264 265 266 266 268 268 267 268 268 269 270 270 270 270 272 272 273 274 275 276 276 276 275 275 274 274 273 273 273 272
251 251 252 252 252 254 256 258 259 260 261 262 263 263 263 265 266 267 268 269 269 269 269 268 269 270 270 270 271 272 273 274 274 275 275 274 274 275 274 273 272 273 273 274
252 253 253 253 254 255 256 258 260 261 262 263 263 263 263 263 264 266 266 267 269 271 271 270 271 271 272 271 271 272 272 273 275 276 276 275 276 273 274 273 273 273 273 274
252 253 254 255 256 257 258 260 261 263 264 264 264 265 264 264 263 264 266 268 269 270 271 272 272 271 272 272 272 272 272 273 274 275 275 275 274 273 273 272 270 271 272 273
Height
5889 5892 5894 5896 5898 5899 5900 5901 5902 5903 5904 5904 5904 5905 5905 5904 5904 5903 5903 5902 5901 5900 5899 5897 5896 5894 5893 5891 5889 5887 5886 5885 5884 5883 5882 5881 5880 5880 5880 5880 5879 5879 5879 5879
5886 5889 5892 5893 5894 5896 5897 5899 5900 5901 5902 5902 5902 5903 5904 5904 5904 5903 5903 5902 5901 5900 5899 5898 5896 5895 5894 5892 5891 5889 5887 5886 5885 5884 5883 5882 5881 5881 5881 5881 5880 5880 5879 5879
5881 5886 5887 5889 5891 5893 5894 5896 5898 5899 5899 5899 5900 5901 5902 5903 5902 5903 5902 5902 5900 5900 5899 5898 5897 5896 5894 5893 5891 5890 5889 5887 5886 5885 5884 5883 5883 5882 5882 5882 5881 5880 5880 5879
5877 5881 5883 5885 5888 5890 5892 5893 5894 5895 5896 5896 5898 5898 5900 5901 5901 5901 5901 5901 5900 5899 5898 5898 5897 5895 5894 5893 5892 5891 5890 5888 5887 5886 5885 5884 5883 5883 5883 5882 5881 5881 5880 5879
5873 5876 5878 5881 5884 5886 5888 5889 5890 5891 5892 5893 5894 5894 5897 5898 5899 5899 5900 5899 5898 5898 5897 5897 5896 5894 5893 5892 5892 5891 5890 5889 5887 5886 5885 5885 5884 5883 5883 5882 5881 5881 5880 5879
5868 5871 5874 5877 5880 5882 5883 5885 5886 5886 5887 5889 5891 5891 5893 5894 5896 5896 5897 5897 5896 5896 5896 5895 5894 5893 5892 5891 5891 5890 5889 5888 5887 5886 5885 5884 5883 5883 5882 5882 5881 5880 5879 5879
5864 5866 5869 5872 5875 5877 5879 5881 5881 5882 5883 5885 5887 5887 5890 5891 5892 5893 5893 5893 5893 5893 5893 5893 5892 5891 5890 5890 5889 5888 5888 5887 5886 5885 5884 5884 5883 5882 5881 5881 5880 5880 5879 5878
5859 5862 5865 5867 5870 5872 5874 5876 5877 5878 5879 5881 5882 5882 5886 5887 5888 5888 5889 5889 5889 5889 5890 5890 5889 5889 5888 5888 5887 5887 5886 5885 5884 5883 5882 5882 5881 5880 5879 5879 5879 5878 5877 5877
5854 5858 5860 5862 5864 5867 5868 5870 5872 5873 5874 5875 5876 5878 5881 5882 5882 5883 5884 5885 5885 5886 5886 5886 5886 5886 5885 5885 5884 5884 5883 5882 5881 5881 5880 5879 5879 5878 5877 5877 5877 5876 5876 5875
5848 5852 5855 5857 5859 5861 5863 5865 5867 5867 5868 5869 5871 5873 5875 5877 5878 5879 5880 5880 5881 5881 5882 5882 5882 5882 5881 5881 5880 5880 5879 5879 5878 5877 5876 5876 5876 5876 5875 5874 5874 5874 5873 5873
5843 5846 5849 5851 5853 5855 5857 5859 5860 5862 5863 5864 5865 5870 5871 5872 5873 5874 5875 5875 5876 5877 5877 5878 5877 5877 5877 5876 5876 5875 5874 5874 5874 5873 5872 5873 5873 5872 5872 5871 5871 5870 5870 5869
5836 5840 5842 5845 5848 5849 5851 5853 5855 5857 5858 5859 5860 5865 5865 5866 5868 5868 5869 5870 5871 5871 5871 5872 5872 5872 5872 5872 5871 5871 5870 5870 5869 5869 5868 5868 5869 5868 5868 5867 5867 5866 5866 5865
5830 5833 5835 5838 5842 5843 5844 5846 5848 5850 5851 5852 5854 5859 5859 5860 5861 5863 5863 5864 5865 5866 5866 5866 5867 5867 5867 5866 5866 5866 5865 5864 5864 5863 5863 5863 5863 5863 5862 5862 5862 5861 5861 5861
5822 5825 5828 5831 5833 5835 5837 5839 5841 5843 5844 5845 5848 5850 5852 5853 5855 5856 5857 5858 5859 5860 5860 5860 5861 5861 5861 5860 5860 5860 5859 5859 5858 5857 5857 5857 5857 5857 5856 5856 5855 5855 5854 5855
5814 5817 5819 5822 5825 5827 5829 5831 5833 5835 5837 5839 5841 5843 5845 5847 5848 5849 5850 5851 5852 5853 5853 5853 5854 5854 5854 5854 5853 5853 5853 5852 5851 5851 5851 5851 5851 5850 5850 5850 5849 5848 5848 5848
5805 5808 5811 5813 5816 5817 5820 5822 5825 5827 5829 5831 5833 5835 5837 5838 5840 5842 5843 5844 5844 5845 5845 5845 5846 5847 5846 5846 5846 5845 5845 5845 5844 5844 5843 5843 5843 5843 5842 5842 5842 5841 5842 5841
5796 5799 5802 5804 5807 5808 5810 5814 5816 5819 5821 5823 5824 5827 5829 5831 5832 5834 5835 5836 5837 5837 5837 5838 5838 5839 5839 5839 5839 5838 5838 5837 5837 5837 5837 5836 5836 5835 5834 5833 5834 5834 5833 5833
5788 5790 5792 5794 5798 5798 5804 5805 5808 5810 5812 5814 5816 5818 5820 5822 5824 5825 5826 5828 5829 5829 5829 5829 5830 5830 5831 5830 5829 5829 5829 5829 5829 5829 5829 5828 5827 5826 5826 5826 5826 5826 5825 5825
5778 5781 5782 5785 5786 5789 5793 5796 5799 5801 5803 5805 5807 5809 5811 5812 5814 5816 5817 5818 5820 5820 5820 5820 5821 5821 5822 5822 5821 5821 5820 5820 5820 5820 5820 5819 5818 5817 5816 5817 5817 5817 5817 5816
5769 5772 5774 5775 5777 5780 5785 5788 5789 5792 5793 5796 5798 5800 5801 5803 5805 5807 5808 5809 5810 5810 5811 5811 5812 5812 5813 5813 5813 5813 5812 5812 5812 5811 5811 5810 5810 5808 5807 5807 5807 5807 5807 5807
5760 5762 5765 5767 5769 5771 5776 5778 5781 5784 5786 5787 5789 5790 5791 5793 5795 5796 5797 5798 5799 5800 5801 5801 5801 5802 5803 5803 5803 5802 5802 5802 5802 5802 5801 5801 5800 5799 5797 5796 5796 5796 5797 5797
5751 5754 5756 5758 5761 5766 5767 5769 5772 5774 5775 5777 5779 5780 5782 5783 5784 5785 5787 5787 5788 5789 5790 5790 5791 5791 5791 5791 5791 5792 5791 5791 5791 5791 5791 5790 5789 5788 5788 5787 5786 5786 5786 5786
5743 5746 5748 5751 5754 5756 5757 5760 5762 5764 5766 5767 5769 5771 5772 5773 5774 5775 5776 5777 5778 5778 5778 5779 5780 5780 5780 5780 5780 5780 5780 5779 5780 5780 5780 5779 5778 5777 5776 5776 5776 5776 5776 5775
5734 5737 5739 5741 5744 5746 5748 5750 5752 5754 5756 5757 5759 5761 5762 5763 5764 5765 5765 5766 5766 5766 5767 5767 5768 5768 5768 5768 5768 5768 5768 5768 5768 5767 5767 5766 5766 5765 5765 5764 5765 5765 5765 5764
5726 5728 5730 5733 5735 5737 5740 5741 5743 5744 5746 5747 5748 5750 5751 5752 5753 5754 5754 5755 5755 5755 5755 5755 5755 5756 5756 5756 5756 5756 5756 5755 5755 5755 5754 5754 5754 5754 5753 5753 5753 5753 5753 5752
5719 5720 5722 5725 5727 5729 5731 5732 5734 5735 5736 5737 5738 5739 5740 5741 5741 5742 5743 5744 5744 5744 5743 5743 5743 5743 5743 5743 5743 5743 5743 5742 5742 5742 5742 5741 5741 5742 5742 5742 5742 5742 5741 5741